Location: Anjeux
(47.8815°N, 6.2076°E)
Time: 04:34:40
(UTC+00:00)

ISS - Pass Details

Date: 03 October 2021
Orbit: 417 x 423 km, 51.6° (Epoch: 27 October)

Event Time Altitude Azimuth Distance (km) Brightness Sun altitude
Rises 18:18:26 0° 292° (WNW) 2,366 1.7 -12.3°
Reaches altitude 10° 18:20:34 10° 288° (WNW) 1,501 0.5 -12.6°
Maximum altitude 18:23:51 51° 211° (SSW) 532 -3.1 -13.2°
Enters shadow 18:26:05 18° 140° (SE) 1,094 -2.1 -13.5°
